Theta_e
315 316 317 317 317 317 316 315 317 319 321 324 324 326 328 329 329 321 312 316 321 332 335 313 312 311 311 308 309 305 296 293 297 299 301 302 302 303 304 303 303 306 309 310 315
313 315 316 316 317 316 317 317 317 317 318 320 323 323 324 325 322 314 324 331 332 336 319 309 305 309 305 305 305 301 295 297 302 297 297 302 302 302 302 302 303 308 310 314 316
311 313 315 316 316 315 315 316 317 317 317 317 321 322 323 322 312 313 332 338 336 335 323 310 309 309 304 302 302 300 296 301 303 303 301 300 300 302 300 298 305 307 309 313 314
310 310 314 314 315 314 314 315 315 316 317 316 318 320 320 316 301 311 333 339 336 328 320 309 306 302 300 299 302 297 301 303 305 305 303 299 300 299 300 302 305 308 313 313 314
310 310 311 313 314 314 313 313 314 315 316 316 316 318 314 309 310 321 333 326 326 317 311 307 304 302 298 298 299 297 299 302 303 303 302 301 299 298 299 301 301 311 313 313 314
310 311 310 311 312 312 313 313 313 314 315 316 316 315 307 298 319 322 321 318 314 319 309 308 305 305 300 299 298 299 300 300 300 301 300 298 298 298 300 301 300 310 311 312 313
310 309 310 310 310 311 312 313 312 312 313 315 315 311 302 302 315 317 317 313 316 315 315 309 309 305 303 298 301 300 295 297 296 298 298 298 295 295 300 300 298 304 308 311 313
309 309 309 309 309 309 310 311 312 312 311 313 315 308 296 311 314 314 316 317 320 319 316 318 311 306 301 301 297 292 292 291 294 296 298 298 292 298 300 297 298 297 299 308 311
309 308 308 308 308 308 308 310 311 312 313 312 306 303 292 313 307 313 317 314 316 313 310 314 309 303 301 297 292 289 284 286 291 295 295 294 291 297 299 297 296 296 295 296 303
309 308 308 307 307 307 307 309 310 310 308 308 306 296 300 300 311 313 317 316 311 311 307 304 302 296 295 293 287 286 285 288 288 293 292 290 291 294 295 295 295 295 293 293 295
308 308 307 307 307 307 304 300 293 291 298 293 294 293 297 304 310 312 315 313 312 307 298 298 295 293 296 296 296 293 289 289 289 294 291 290 292 296 296 291 292 292 292 292 293
308 308 307 307 307 306 301 292 294 298 289 295 295 296 298 300 295 305 313 305 304 298 300 294 293 299 301 299 296 294 291 288 291 293 291 290 289 293 293 294 295 295 294 294 295
307 307 307 306 306 300 295 293 301 300 288 289 294 293 294 296 293 298 309 306 299 297 298 293 295 302 299 297 294 294 291 290 290 292 289 287 287 290 294 293 296 296 297 296 297
306 306 306 306 297 296 292 300 300 301 281 282 289 292 295 297 295 302 309 306 300 296 297 296 299 298 297 295 295 291 297 295 293 289 283 288 280 287 291 292 294 296 296 298 299
306 306 305 305 296 292 296 299 298 295 268 283 290 299 296 293 297 300 309 306 298 297 297 293 295 294 295 296 296 292 297 295 294 290 285 285 282 285 289 290 294 297 296 297 299
306 306 305 299 295 296 298 297 294 278 265 281 292 291 290 293 294 301 304 308 303 297 298 296 298 298 297 299 298 296 293 291 289 285 281 286 285 284 288 291 295 296 297 296 296
306 305 302 300 291 297 297 290 269 268 280 279 282 286 286 288 291 294 297 297 291 288 288 292 295 297 297 293 297 295 289 283 281 279 280 286 283 289 290 294 298 299 298 296 295
305 304 300 299 297 296 292 280 266 274 277 283 284 284 281 286 290 291 291 292 296 293 289 286 284 294 297 294 292 291 290 283 277 276 281 285 281 286 293 299 299 297 297 295 293
302 294 292 294 297 296 285 271 267 275 280 281 281 279 283 286 284 284 289 289 293 295 288 286 286 294 295 295 296 290 288 292 283 280 279 281 284 290 292 292 294 294 294 296 296
293 290 290 296 296 292 280 271 275 281 282 282 275 280 275 280 280 280 279 288 292 297 298 291 283 293 295 296 296 293 295 286 286 278 276 279 279 285 288 292 292 293 293 294 295
290 284 290 299 298 287 273 272 278 282 282 279 279 277 278 278 281 279 280 285 288 293 298 292 290 287 294 292 291 291 290 289 289 283 280 276 281 288 292 293 292 293 294 294 295
289 277 293 295 276 282 277 280 284 282 287 286 284 282 280 281 278 281 280 284 289 289 285 295 292 285 288 295 298 295 292 291 286 281 285 280 285 291 293 294 292 292 293 295 296
285 283 290 290 275 274 277 282 284 283 283 283 282 284 284 282 277 283 285 289 287 287 284 287 289 284 285 291 295 292 293 293 292 288 281 282 285 292 290 290 293 293 292 294 296
285 276 281 288 283 277 277 278 281 286 284 286 283 285 283 280 283 280 283 287 290 288 290 289 286 287 282 286 291 289 292 292 291 286 287 286 288 288 290 291 291 291 292 293 295
286 279 280 274 277 281 279 277 279 279 284 285 282 283 281 277 279 280 283 285 288 290 286 287 280 288 290 291 293 291 292 292 290 291 287 290 289 292 291 292 292 292 291 293 294
282 281 284 281 282 280 278 278 278 280 281 280 280 282 282 278 279 277 281 281 283 287 286 286 279 282 288 291 293 290 292 293 292 292 292 292 290 294 294 288 289 290 291 292 294
290 290 284 280 277 275 276 278 279 282 282 283 282 279 278 281 284 284 285 286 285 283 283 283 282 279 283 290 291 286 290 292 293 293 293 289 294 292 292 291 291 291 292 293 293
Wind_Speed
18 19 19 18 19 19 18 18 19 19 19 19 18 19 19 20 11 7 14 13 11 15 2 2 2 3 2 2 4 4 3 4 5 6 4 0 4 3 2 7 1 5 8 3 17
19 21 20 21 20 19 19 19 19 19 20 19 19 18 21 22 6 15 17 24 22 14 4 5 4 5 1 3 3 4 4 9 6 3 1 4 3 7 6 4 1 1 3 10 16
19 19 21 21 20 20 20 20 19 19 20 19 19 19 18 19 7 13 10 14 26 18 5 4 4 6 4 3 5 6 7 5 5 5 2 3 1 3 8 4 7 11 7 15 16
19 18 20 21 21 21 20 20 20 20 20 19 18 17 18 10 11 3 8 15 6 10 4 5 5 6 5 7 5 3 7 4 5 2 5 3 3 2 3 6 6 9 14 15 17
19 17 19 20 21 21 21 21 21 21 20 17 16 15 7 11 15 17 17 8 5 4 8 6 6 6 6 5 3 5 4 5 7 8 6 3 7 6 6 4 4 9 10 17 17
17 18 17 18 21 21 23 22 22 22 20 18 17 15 8 21 5 20 16 10 5 5 6 6 7 8 5 6 8 4 7 9 5 6 4 4 7 4 7 7 3 7 12 14 17
16 18 17 20 20 22 22 25 25 24 22 20 19 10 14 28 11 14 8 3 1 3 11 9 5 5 7 4 7 6 6 7 5 5 7 7 9 9 8 6 8 9 9 9 14
17 16 16 19 21 22 24 25 27 29 25 22 18 11 17 5 12 23 22 16 15 10 11 11 7 7 3 1 2 3 4 10 4 8 7 11 15 10 11 6 11 10 9 10 13
16 17 17 18 20 22 25 27 31 31 27 18 13 7 16 10 21 21 16 17 12 3 6 10 5 7 3 5 3 3 4 5 6 10 6 9 7 8 10 9 11 10 10 10 12
17 17 16 17 20 22 25 29 28 20 5 3 8 6 9 15 8 11 9 12 6 5 6 8 6 5 4 9 18 7 6 5 8 7 6 6 11 8 5 10 13 11 9 10 11
18 17 17 19 20 22 19 6 7 5 4 7 9 15 14 14 9 10 13 16 10 7 13 5 8 17 23 18 10 8 6 11 4 6 6 8 15 17 14 6 8 10 9 10 10
17 16 17 17 19 22 4 5 7 8 14 15 21 26 25 14 12 11 13 12 14 21 18 7 23 22 13 13 12 13 9 10 5 5 4 8 10 14 7 10 14 14 11 12 8
17 15 16 14 19 4 4 5 6 11 10 13 18 17 14 13 19 20 18 19 12 21 18 22 16 14 17 13 16 18 19 12 7 1 3 2 7 8 8 8 8 10 13 8 14
15 15 13 12 7 2 7 6 11 4 7 9 7 9 10 12 12 26 12 14 10 24 25 20 19 19 14 20 18 22 16 10 8 2 6 6 7 7 6 9 7 13 10 14 13
15 13 12 7 3 2 5 8 11 2 8 8 5 5 4 20 8 16 26 21 18 12 20 18 24 21 22 28 20 16 10 11 7 7 1 5 3 8 5 8 12 18 11 15 16
14 14 12 4 1 5 3 7 3 2 12 7 4 11 7 14 19 2 15 15 10 12 19 23 6 21 18 15 19 9 6 4 4 4 9 14 10 7 9 10 13 9 13 11 11
13 13 11 4 6 5 3 4 5 7 6 6 8 12 10 8 13 19 16 26 13 11 8 8 22 13 9 8 8 11 10 4 3 4 15 7 9 16 7 11 17 17 12 11 10
11 12 6 7 5 6 4 2 7 7 14 20 16 18 10 6 7 19 20 16 18 9 9 11 12 18 13 16 17 26 19 8 9 6 10 6 10 8 14 20 12 9 8 6 7
5 3 3 3 4 6 6 5 10 9 7 6 13 9 3 6 9 16 21 26 12 11 8 14 10 9 13 9 18 11 18 18 6 2 2 6 7 9 8 10 8 10 7 9 8
2 2 3 1 7 7 3 8 7 10 14 10 3 6 5 13 8 8 6 12 21 16 16 9 5 12 23 8 12 14 20 11 6 7 7 5 4 9 7 13 8 9 10 9 7
3 1 2 7 5 4 5 7 8 13 15 7 9 9 16 15 3 7 5 19 11 14 16 7 13 6 16 23 18 11 14 6 11 7 9 3 8 9 9 10 11 13 10 10 9
4 1 2 3 2 4 4 5 9 14 10 7 4 8 9 9 5 7 11 13 10 9 12 22 5 10 18 22 30 26 27 23 13 14 14 4 11 4 10 7 7 9 9 8 6
3 3 2 3 5 5 6 6 7 6 6 4 6 8 5 5 7 5 3 4 4 6 7 11 18 12 6 11 21 28 21 20 20 8 10 16 12 5 6 4 8 8 8 8 7
4 3 2 4 3 4 4 6 10 6 10 7 6 6 8 7 10 6 9 7 4 0 6 9 10 25 19 10 22 34 25 21 26 19 21 19 20 5 7 8 8 8 9 10 9
4 5 5 3 4 4 3 2 6 5 6 3 3 4 1 4 8 6 10 13 7 7 3 6 11 12 21 7 19 18 30 30 25 27 22 30 26 16 10 12 13 9 7 9 9
5 4 3 5 6 5 5 5 9 12 8 6 5 10 5 5 9 15 14 7 5 4 5 3 6 21 26 23 12 24 24 26 22 28 21 23 23 11 9 4 4 9 10 9 9
3 2 3 6 5 4 5 7 6 6 5 10 5 7 10 11 11 11 16 16 13 10 7 3 3 8 10 23 19 12 23 25 24 21 32 27 27 9 9 9 10 9 10 11 9
Wind_Direction
342 340 337 335 331 330 322 314 319 308 320 323 323 324 327 324 300 287 260 229 213 253 248 261 179 181 139 248 171 133 99 202 233 182 262 188 140 179 112 118 131 172 150 220 131
334 335 339 333 331 332 328 322 316 314 307 315 316 322 334 338 284 266 251 250 237 240 188 206 239 157 237 224 212 145 160 210 211 176 255 276 198 173 130 135 347 174 64 131 136
334 332 334 335 329 331 328 324 322 317 311 305 314 318 325 331 294 263 265 267 236 224 213 173 191 160 204 188 215 193 202 219 240 191 143 305 294 268 131 192 195 190 160 154 154
329 331 336 330 331 330 328 324 320 315 308 310 309 320 324 291 244 179 27 12 78 189 222 179 163 169 196 213 215 204 222 214 268 328 358 312 293 235 194 226 196 191 163 157 170
327 332 329 332 331 327 328 326 320 314 306 300 303 311 337 256 230 245 305 353 21 126 210 199 164 159 194 207 184 233 239 197 255 291 273 315 255 229 218 216 36 129 150 174 182
330 331 331 331 330 329 324 324 319 313 307 296 296 306 278 254 266 267 279 302 218 217 216 198 211 193 199 219 174 236 204 246 266 257 267 239 265 167 257 164 123 160 182 189 188
327 325 334 332 329 326 322 318 314 307 300 292 290 290 260 239 283 300 305 220 55 313 248 218 222 183 181 287 219 228 256 279 243 226 223 181 272 223 235 149 164 200 214 210 214
322 326 330 326 326 326 320 313 308 300 293 289 279 276 259 236 233 258 259 274 272 274 246 262 193 216 209 250 347 171 156 244 224 181 236 162 252 240 239 218 238 212 213 217 224
317 322 321 326 324 324 320 314 304 294 290 277 271 229 264 245 221 231 234 239 271 280 235 245 164 183 203 189 309 257 205 197 272 197 168 181 249 232 221 201 237 240 218 220 229
316 315 323 325 323 324 322 315 296 303 307 193 223 252 247 247 224 218 191 202 208 300 289 200 185 174 168 189 216 197 181 229 206 215 200 195 258 257 254 198 226 243 248 225 222
307 320 319 323 322 323 329 336 360 330 10 285 256 247 299 1 277 220 194 212 220 221 230 214 186 208 210 215 232 191 194 215 197 223 163 222 238 249 235 219 238 241 243 238 232
310 313 315 320 320 324 12 335 286 305 291 261 258 258 255 263 293 281 158 168 178 213 216 224 221 212 207 195 207 226 225 232 271 198 165 257 248 251 231 222 219 227 237 238 242
306 309 312 328 317 11 325 255 305 325 280 275 237 244 239 209 240 257 193 193 194 209 201 209 226 195 189 195 200 220 222 216 223 105 210 334 281 265 256 213 232 241 242 234 228
300 305 315 325 326 332 307 325 331 335 285 271 235 260 204 206 240 224 220 186 208 201 201 222 221 203 191 206 194 223 213 220 225 177 248 157 273 264 252 253 230 248 231 238 235
293 296 305 304 267 299 288 342 318 21 286 262 231 238 246 182 147 221 210 206 205 184 182 212 203 202 199 205 190 233 171 198 201 226 145 230 248 264 221 237 250 246 239 237 239
289 293 298 322 230 234 344 323 345 228 249 292 313 21 360 218 228 226 182 223 210 207 195 218 176 199 209 210 201 137 106 106 81 126 242 238 209 216 208 206 244 247 243 244 234
286 289 294 225 254 151 80 6 31 229 310 261 354 337 342 296 241 236 213 197 191 177 188 234 227 211 167 172 170 181 144 197 225 199 238 201 216 242 250 228 230 241 245 245 244
292 297 269 248 235 142 100 126 226 254 241 289 329 314 305 307 280 222 236 206 191 172 159 186 213 204 188 200 187 194 190 161 198 200 235 164 233 247 206 221 230 243 247 281 232
325 312 269 256 214 150 149 201 213 229 262 320 335 306 341 81 349 357 232 242 178 210 161 186 229 178 207 195 167 188 201 190 122 348 113 215 285 297 251 252 242 239 218 226 212
130 315 251 31 116 135 167 240 236 232 281 312 247 277 279 327 338 31 313 320 247 205 202 195 243 208 208 192 215 171 190 182 205 187 230 261 247 227 235 222 217 226 215 219 198
90 345 243 143 118 188 214 226 261 246 263 269 261 288 294 301 280 308 269 300 8 267 232 219 212 215 197 206 195 184 191 181 190 186 209 252 251 211 207 212 202 217 214 204 193
142 264 201 126 83 237 211 214 233 262 276 258 270 247 259 266 257 240 207 208 350 356 308 237 265 236 219 210 198 199 210 195 200 205 222 162 238 204 221 232 198 219 204 195 200
176 214 240 104 229 221 274 260 234 254 242 261 263 223 215 267 301 236 300 149 87 46 11 349 228 229 223 223 207 214 205 201 210 226 206 216 241 187 173 209 231 218 201 199 188
148 224 261 210 203 193 250 260 247 282 252 248 266 280 270 261 252 259 250 251 270 266 303 325 247 220 224 210 193 205 211 206 203 210 220 217 232 214 193 219 235 224 199 187 192
168 217 187 222 238 209 164 243 275 276 237 239 269 216 356 287 308 288 301 287 266 200 187 214 278 255 230 205 201 220 210 208 216 215 210 223 228 213 212 211 217 213 164 161 188
163 178 201 247 247 229 240 214 248 269 263 264 258 302 304 280 277 297 301 323 307 166 182 199 302 317 221 227 233 199 220 215 218 224 225 237 245 182 221 146 151 181 166 180 195
154 229 147 192 180 171 213 214 235 264 264 249 274 321 296 280 278 283 278 265 248 246 268 160 342 356 244 205 220 221 216 211 220 230 218 220 226 168 193 202 206 196 187 198 203